Regional Weather Roundup
Issued by NWS

Home | Current Version | Previous Version | Graphics & Text | Print | Product List | Glossary On
Versions: 1 2 3 4 5 6 7 8 9 10 11 12 13 14 15 16 17 18 19 20 21 22 23 24 25 26 27 28 29 30 31 32 33 34 35 36 37 38 39 40 41 42 43 44 45 46 47 48 49 50
000
ASUS43 KLOT 202312
RWRIL

ILLINOIS REGIONAL WEATHER ROUNDUP
NATIONAL WEATHER SERVICE CHICAGO/ROMEOVILLE IL
500 PM CST MON FEB 20 2017

NOTE: "FAIR" INDICATES FEW OR NO CLOUDS BELOW 12,000 FEET WITH NO
SIGNIFICANT WEATHER AND/OR OBSTRUCTIONS TO VISIBILITY.

* THESE STATIONS ARE NOT UNDER NWS QUALITY CONTROL. THEY ALSO MAY NOT
  REPORT WEATHER SUCH AS PRECIPITATION OR FOG.

ILZ001-002-007-009-015-016-024-210000-
NORTHWEST ILLINOIS

CITY           SKY/WX    TMP DP  RH WIND       PRES   REMARKS
MOLINE         CLOUDY    72  51  47 S13       29.84R
STERLING*      CLOUDY    66  53  63 SE10      29.87F
SAVANNA*       LGT RAIN  65  52  63 S10       29.85S
$$

ILZ003-004-008-010-011-017-018-210000-
NORTH CENTRAL ILLINOIS

CITY           SKY/WX    TMP DP  RH WIND       PRES   REMARKS
ROCKFORD       CLOUDY    66  51  58 S21G30    29.90F
FREEPORT*      CLOUDY    63  51  65 SE20      29.89S
ROCHELLE*      CLOUDY    64  53  68 SE17      29.91F
DE KALB*       CLOUDY    64  52  65 SE17      29.94F
PERU*          CLOUDY    67  49  52 SE20      29.92S
$$

ILZ005-006-012>014-019>023-210000-
NORTHEAST ILLINOIS

CITY           SKY/WX    TMP DP  RH WIND       PRES   REMARKS
CHICAGO-OHARE  CLOUDY    66  47  50 SE15      29.97R
CHICAGO-MIDWAY CLOUDY    66  45  46 SE14      29.98S
AURORA         CLOUDY    66  51  58 SE17      29.95S
LANSING*       CLOUDY    63  48  59 SE10      30.01R
JOLIET*        CLOUDY    67  51  57 SE10      29.97S
WAUKEGAN       PTCLDY    53  41  63 S12       29.97S
DUPAGE AIRPORT MOCLDY    65  47  52 SE13      29.95F
KANKAKEE*      PTCLDY    64  48  56 SE10      30.00F
WHEELING       CLOUDY    65  45  48 S20G26    29.98S
MORRIS*        CLOUDY    65  51  59 SE12      29.95S
ROMEOVILLE*    PTCLDY    64  52  65 S15G21    29.97S
NORTHERLY ISL    N/A     46  38  73 S2          N/A
$$

LMZ740>746-210000-
SOUTHERN LAKE MICHIGAN

STATION/POSITION SKY/WX   TEMP    WIND        PRES    VSBY  WAVE
                          AIR SEA DIR/SP/G                  HT/PER
                          (F)     (DEG/KT/KT) (MB)    (MI)  (FT/S)
HARRISON CRIB              52     150/ 20/ 22   N/A
BURNHAM HARBOR             46     170/  4/  9   N/A
CALUMET HARBOR             64     140/ 12/ 17 1015.3R
BURNS HARBOR               64     140/ 12/ 23 1016.9
MICHIGAN CITY              64     140/ 11/ 14   N/A
$$

ILZ025>027-034>036-040-047-049-050-058-095>099-210000-
WEST-CENTRAL ILLINOIS

CITY           SKY/WX    TMP DP  RH WIND       PRES   REMARKS
QUINCY         CLOUDY    74  46  36 S8        29.86R
GALESBURG*     CLOUDY    70  53  54 S14       29.86R
MACOMB*        CLOUDY    73  52  47 S18       29.88R
JACKSONVILLE*  CLOUDY    72  53  50 S12       29.90R
PITTSFIELD*    CLOUDY    74  50  42 S14G23    29.89R
$$

ILZ028>032-037-038-041>044-048-051>054-059>061-210000-
CENTRAL ILLINOIS

CITY           SKY/WX    TMP DP  RH WIND       PRES   REMARKS
PONTIAC        CLOUDY    68  52  56 SE16G23   29.96S
BLOOMINGTON    MOCLDY    67  51  56 SE17      29.97R
DECATUR        PTCLDY    69  50  50 S15       29.97S
PEORIA         PTCLDY    71  50  47 S22G29    29.90S
LACON*         CLOUDY    69  51  52 S13G22    29.90S
LINCOLN*       PTCLDY    70  52  54 SE14      29.94S
SPRINGFIELD    PTCLDY    72  51  47 SE16      29.92S
TAYLORVILLE    CLOUDY    70  51  51 SE13G18   29.95F
$$

ILZ033-039-045-046-055>057-062-063-210000-
EAST-CENTRAL ILLINOIS

CITY           SKY/WX    TMP DP  RH WIND       PRES   REMARKS
CHAMPAIGN      PTCLDY    67  50  54 SE15      29.99F
RANTOUL*       CLOUDY    68  53  59 S13       30.00S
MATTOON        PTCLDY    67  52  58 SE9       29.99F
PARIS*         PTCLDY    65  52  62 SE7       30.03S
$$

ILZ079-100>102-210000-
SOUTHWEST ILLINOIS

CITY           SKY/WX    TMP DP  RH WIND       PRES   REMARKS
ALTON          CLOUDY    70  54  56 SE15      29.93S
BELLEVILLE     CLOUDY    71  56  59 E12G20    29.91F
CAHOKIA*       CLOUDY    72  53  51 SE13      29.91F
SPARTA*        CLOUDY    69  55  62 SE9       29.96F
$$

ILZ064>066-069>071-074>076-080>082-084>086-088>090-092>094-210000-
SOUTH-CENTRAL ILLINOIS

CITY           SKY/WX    TMP DP  RH WIND       PRES   REMARKS
CARBONDALE     CLOUDY    68  54  60 S7        29.98F
CAIRO*         MOCLDY    70  55  59 S6        30.00R
EFFINGHAM*     CLOUDY    69  54  57 SE9       30.02R
CENTRALIA*     MOCLDY    70  54  56 S10       29.98S
SALEM*         PTCLDY    72  51  46 S8        29.99R
METROPOLIS*    CLOUDY    68  53  58 CALM      30.01S
$$

ILZ067-068-072-073-078-083-087-091-210000-
SOUTHEAST ILLINOIS

CITY           SKY/WX    TMP DP  RH WIND       PRES   REMARKS
LAWRENCEVILLE  PTCLDY    68  50  52 SE10      30.02F
FLORA*         MOCLDY    70  54  56 S9        30.01R
FAIRFIELD*     CLOUDY    69  51  54 SE3       30.00R
HARRISBURG*    CLOUDY    66  56  71 S7        30.01S
ROBINSON*      MOCLDY    67  50  54 SE9       30.02F
CARMI*         PTCLDY    65  55  68 SE8       30.01R
$$

ABBREVIATIONS USED IN REMARKS
   TC - TEMPERATURE IN CELSIUS
  WCI - WIND CHILL INDEX
   HX - HEAT INDEX
  VSB - VISIBILITY
$$





USA.gov is the U.S. government's official web portal to all federal, state and local government web resources and services.